{"data":{"norad_id":58910,"intl_designator":"2024-023F","name":"GEESAT-2 06","alt_names":[],"object_type":"PAYLOAD","status":"ACTIVE","operator":null,"country":"PRC","launch_date":"2024-02-02","launch_site_code":"XICLF","launch_vehicle":null,"mission":null,"orbit_class":"UNKNOWN","rcs_meters":null,"size_class":null,"mass_kg":null,"dimensions":null,"purposes":[],"wikipedia_slug":null,"has_3d_model":false,"image_url":null,"decayed_at":null,"tle_current":{"epoch":"2026-05-25T04:35:14.901216Z","epoch_age_seconds":57826,"freshness":"FRESH","line1":"1 58910U 24023F   26145.19114469  .00005240  00000+0  39468-3 0  9990","line2":"2 58910  49.9890  49.7312 0005997 325.7220  34.3339 15.03908271126180","mean_motion":15.03908271,"eccentricity":0.0005997,"inclination_deg":49.989,"raan_deg":49.7312,"arg_perigee_deg":325.722,"mean_anomaly_deg":34.3339,"bstar":0.00039468,"rev_number":12618,"period_min":95.750520677867,"perigee_km":550.70117296256,"apogee_km":559.01660823374,"semimajor_km":6932.9958905982,"source":"CELESTRAK","updated_at":"2026-05-25T13:38:01.074322Z"}}}